Погода в Курске

Россия / Курская область     51˚43′49″N   36˚11′33″E
темп.,
°C
ветер,
м/с
пор.,
м/с
влажн.,
%
обл.,
%
осадки,
мм/ч
давл.,
гПа
погр.,
м
5 декабря, сб
сб500:00−4˚юв5107259 0.0 1035439
03:00−4˚юв5106229 0.0 1036381
06:00−5˚юв510536 0.0 1036365
09:00−5˚юв59553 0.0 1036343
12:00−3˚юв510450 0.0 1037374
15:00−2˚юв59370 0.0 1037383
18:00−4˚вюв511400 0.0 1038359
21:00−4˚вюв410420 0.0 1039338
6 декабря, вс
вс600:00−5˚вюв410410 0.0 1039313
03:00−5˚вюв49430 0.0 1040289
06:00−6˚вюв49450 0.0 1040276
09:00−6˚вюв410510 0.0 1041288
12:00−4˚вюв48530 0.0 1041378
15:00−3˚в59560 0.0 1040468
18:00−4˚вюв511610 0.0 1040439
21:00−5˚вюв511610 0.0 1041447
7 декабря, пн
пн700:00−6˚вюв511620 0.0 1041448
03:00−6˚вюв510640 0.0 1041420
06:00−7˚вюв510650 0.0 1040389
09:00−7˚вюв511640 0.0 1040386
12:00−5˚вюв611510 0.0 1040487
15:00−3˚вюв510420 0.0 1039540
18:00−5˚вюв512490 0.0 1038480
21:00−5˚вюв612560 0.0 1038431
8 декабря, вт
вт800:00−6˚вюв512560 0.0 1038432
03:00−6˚вюв512570 0.0 1037412
06:00−6˚в512600 0.0 1036408
09:00−6˚вюв614560 0.0 1036436
12:00−3˚вюв612440 0.0 1035485
15:00−2˚вюв612390 0.0 1034543
18:00−4˚вюв614410 0.0 1034464
21:00−4˚вюв613420 0.0 1034459
9 декабря, ср
ср900:00−5˚вюв613450 0.0 1034411
03:00−5˚вюв512480 0.0 1034391
06:00−6˚вюв5125128 0.0 1033391
09:00−6˚вюв5115461 0.0 1033379
12:00−4˚вюв5104991 0.0 1034383
15:00−4˚вюв6105015 0.0 1033592
18:00−4˚юв5115893 0.0 1033601
21:00−4˚юв5116097 0.0 1033549